| time (UTC) | temp C | wind direction | speed KPH | gust KPH | rain 1hr cm | rain 24hr cm | rain mn cm | humidity % | barometer mb |
| 20260506135004 | 12 | 40 | 1.6 | 14.5 | 0.00 | 0.00 | 0.00 | 71 | 1013.3 |
| 20260506134519 | 12 | 86 | 4.8 | 12.9 | 0.00 | 0.00 | 0.00 | 70 | 1013.3 |
| 20260506134008 | 12 | 105 | 1.6 | 17.7 | 0.00 | 0.00 | 0.00 | 72 | 1013.2 |
| 20260506133507 | 12 | 91 | 4.8 | 17.7 | 0.00 | 0.00 | 0.00 | 70 | 1013.3 |
| 20260506133023 | 12 | 78 | 6.4 | 16.1 | 0.00 | 0.00 | 0.00 | 68 | 1013.3 |
| 20260506132513 | 12 | 40 | 6.4 | 16.1 | 0.00 | 0.00 | 0.00 | 68 | 1013.2 |
| 20260506132014 | 13 | 113 | 4.8 | 16.1 | 0.00 | 0.00 | 0.00 | 68 | 1013.2 |
| 20260506131524 | 13 | 72 | 4.8 | 16.1 | 0.00 | 0.00 | 0.00 | 69 | 1013.1 |
| 20260506131008 | 13 | 53 | 6.4 | 16.1 | 0.00 | 0.00 | 0.00 | 67 | 1013.2 |
| 20260506130515 | 13 | 58 | 4.8 | 14.5 | 0.00 | 0.00 | 0.00 | 68 | 1013.1 |
| 20260506130030 | 13 | 307 | 4.8 | 14.5 | 0.00 | 0.00 | 0.00 | 67 | 1013.2 |
| 20260506125505 | 13 | 88 | 4.8 | 16.1 | 0.00 | 0.00 | 0.00 | 68 | 1013.1 |
| 20260506125003 | 13 | 48 | 3.2 | 16.1 | 0.00 | 0.00 | 0.00 | 66 | 1013.0 |
| 20260506124517 | 13 | 348 | 3.2 | 14.5 | 0.00 | 0.00 | 0.00 | 65 | 1013.1 |
| 20260506124004 | 13 | 90 | 3.2 | 14.5 | 0.00 | 0.00 | 0.00 | 66 | 1012.9 |
| 20260506123505 | 13 | 36 | 4.8 | 14.5 | 0.00 | 0.00 | 0.00 | 65 | 1013.0 |
| 20260506123022 | 13 | 198 | 4.8 | 16.1 | 0.00 | 0.00 | 0.00 | 66 | 1012.9 |
| 20260506122508 | 13 | 52 | 3.2 | 16.1 | 0.00 | 0.00 | 0.00 | 69 | 1012.9 |
| 20260506122012 | 13 | 76 | 4.8 | 11.3 | 0.00 | 0.00 | 0.00 | 68 | 1012.9 |
| 20260506121527 | 13 | 61 | 3.2 | 14.5 | 0.00 | 0.00 | 0.00 | 67 | 1012.8 |
| 20260506121010 | 13 | 333 | 3.2 | 16.1 | 0.00 | 0.00 | 0.00 | 68 | 1012.8 |
| 20260506120515 | 13 | 79 | 4.8 | 16.1 | 0.00 | 0.00 | 0.00 | 68 | 1012.8 |
| 20260506120022 | 13 | 93 | 3.2 | 16.1 | 0.00 | 0.00 | 0.00 | 67 | 1012.8 |
| 20260506115508 | 13 | 46 | 3.2 | 16.1 | 0.00 | 0.00 | 0.00 | 68 | 1012.8 |
| 20260506115013 | 13 | 105 | 3.2 | 12.9 | 0.00 | 0.00 | 0.00 | 67 | 1012.8 |
| 20260506114521 | 13 | 55 | 3.2 | 12.9 | 0.00 | 0.00 | 0.00 | 66 | 1012.8 |
| 20260506114007 | 13 | 57 | 3.2 | 12.9 | 0.00 | 0.00 | 0.00 | 68 | 1012.8 |
| 20260506113504 | 13 | 325 | 3.2 | 11.3 | 0.00 | 0.00 | 0.00 | 68 | 1012.8 |
| 20260506113020 | 12 | 100 | 1.6 | 14.5 | 0.00 | 0.00 | 0.00 | 69 | 1012.8 |
| 20260506112509 | 13 | 64 | 4.8 | 14.5 | 0.00 | 0.00 | 0.00 | 68 | 1012.8 |
| 20260506112011 | 13 | 254 | 1.6 | 12.9 | 0.00 | 0.00 | 0.00 | 68 | 1012.8 |
| 20260506111526 | 13 | 323 | 3.2 | 11.3 | 0.00 | 0.00 | 0.00 | 69 | 1012.8 |
| 20260506111005 | 13 | 89 | 4.8 | 9.7 | 0.00 | 0.00 | 0.00 | 69 | 1012.8 |
| 20260506110502 | 13 | 31 | 3.2 | 9.7 | 0.00 | 0.00 | 0.00 | 69 | 1012.8 |
| 20260506110007 | 13 | 44 | 3.2 | 9.7 | 0.00 | 0.00 | 0.00 | 70 | 1012.8 |
| 20260506105503 | 12 | 49 | 3.2 | 9.7 | 0.00 | 0.00 | 0.00 | 71 | 1012.7 |
| 20260506105008 | 12 | 45 | 3.2 | 12.9 | 0.00 | 0.00 | 0.00 | 71 | 1012.7 |
| 20260506104506 | 12 | 72 | 4.8 | 12.9 | 0.00 | 0.00 | 0.00 | 71 | 1012.7 |
| 20260506104003 | 12 | 111 | 3.2 | 14.5 | 0.00 | 0.00 | 0.00 | 71 | 1012.7 |
| 20260506103506 | 12 | 65 | 3.2 | 14.5 | 0.00 | 0.00 | 0.00 | 71 | 1012.7 |
| 20260506103003 | 12 | 95 | 3.2 | 11.3 | 0.00 | 0.00 | 0.00 | 71 | 1012.7 |
| 20260506102503 | 12 | 106 | 4.8 | 12.9 | 0.00 | 0.00 | 0.00 | 72 | 1012.7 |
| 20260506102006 | 12 | 64 | 3.2 | 12.9 | 0.00 | 0.00 | 0.00 | 70 | 1012.7 |
| 20260506101537 | 12 | 76 | 4.8 | 12.9 | 0.00 | 0.00 | 0.00 | 72 | 1012.6 |
| 20260506101006 | 12 | 94 | 3.2 | 11.3 | 0.00 | 0.00 | 0.00 | 74 | 1012.6 |
| 20260506100502 | 11 | 132 | 1.6 | 8.0 | 0.00 | 0.00 | 0.00 | 78 | 1012.5 |
| 20260506100003 | 11 | 84 | 1.6 | 8.0 | 0.00 | 0.00 | 0.00 | 78 | 1012.6 |
| 20260506095502 | 11 | 109 | 4.8 | 8.0 | 0.00 | 0.00 | 0.00 | 78 | 1012.5 |
| 20260506095002 | 11 | 26 | 0.0 | 6.4 | 0.00 | 0.00 | 0.00 | 81 | 1012.5 |
| 20260506094516 | 11 | 27 | 1.6 | 6.4 | 0.00 | 0.00 | 0.00 | 82 | 1012.4 |
| 20260506094004 | 11 | 46 | 1.6 | 6.4 | 0.00 | 0.00 | 0.00 | 83 | 1012.5 |
| 20260506093505 | 11 | 51 | 1.6 | 6.4 | 0.00 | 0.00 | 0.00 | 84 | 1012.4 |
| 20260506093014 | 11 | 80 | 1.6 | 6.4 | 0.00 | 0.00 | 0.00 | 83 | 1012.4 |
| 20260506092507 | 10 | 28 | 1.6 | 8.0 | 0.00 | 0.00 | 0.00 | 85 | 1012.2 |
| 20260506092010 | 10 | 103 | 1.6 | 8.0 | 0.00 | 0.00 | 0.00 | 85 | 1012.2 |
| 20260506091508 | 10 | 82 | 1.6 | 8.0 | 0.00 | 0.00 | 0.00 | 85 | 1012.2 |
| 20260506091010 | 10 | 126 | 1.6 | 8.0 | 0.00 | 0.00 | 0.00 | 85 | 1012.2 |
| 20260506090507 | 10 | 92 | 3.2 | 8.0 | 0.00 | 0.00 | 0.00 | 86 | 1012.2 |
| 20260506090008 | 10 | 105 | 1.6 | 9.7 | 0.00 | 0.00 | 0.00 | 85 | 1012.1 |
| 20260506085505 | 10 | 51 | 3.2 | 9.7 | 0.00 | 0.00 | 0.00 | 84 | 1012.0 |
| 20260506085004 | 10 | 123 | 1.6 | 9.7 | 0.00 | 0.00 | 0.00 | 84 | 1012.1 |
| 20260506084516 | 10 | 60 | 1.6 | 9.7 | 0.00 | 0.00 | 0.00 | 83 | 1012.1 |
| 20260506084003 | 11 | 127 | 3.2 | 11.3 | 0.00 | 0.00 | 0.00 | 82 | 1012.0 |
| 20260506083504 | 11 | 80 | 3.2 | 11.3 | 0.00 | 0.00 | 0.00 | 81 | 1012.1 |
| 20260506083012 | 11 | 138 | 3.2 | 12.9 | 0.00 | 0.00 | 0.00 | 81 | 1012.0 |
| 20260506082502 | 11 | 79 | 3.2 | 12.9 | 0.00 | 0.00 | 0.00 | 80 | 1012.0 |
| 20260506082006 | 11 | 55 | 3.2 | 9.7 | 0.00 | 0.00 | 0.00 | 80 | 1012.0 |
| 20260506081519 | 11 | 49 | 3.2 | 8.0 | 0.00 | 0.00 | 0.00 | 80 | 1012.0 |
| 20260506081008 | 11 | 17 | 1.6 | 14.5 | 0.00 | 0.00 | 0.00 | 81 | 1011.9 |
| 20260506080503 | 11 | 283 | 3.2 | 14.5 | 0.00 | 0.00 | 0.00 | 81 | 1011.9 |
| 20260506073503 | 10 | 328 | 1.6 | 4.8 | 0.00 | 0.00 | 0.00 | 86 | 1011.9 |
| 20260506073010 | 9 | 24 | 1.6 | 4.8 | 0.00 | 0.00 | 0.00 | 86 | 1011.8 |
| 20260506072508 | 9 | 343 | 0.0 | 6.4 | 0.00 | 0.00 | 0.00 | 86 | 1011.8 |
| 20260506072005 | 9 | 360 | 1.6 | 6.4 | 0.00 | 0.00 | 0.00 | 86 | 1011.9 |
| 20260506071516 | 9 | 334 | 1.6 | 6.4 | 0.00 | 0.00 | 0.00 | 86 | 1011.8 |
| 20260506071005 | 9 | 314 | 1.6 | 4.8 | 0.00 | 0.00 | 0.00 | 86 | 1011.8 |
| 20260506070505 | 9 | 325 | 1.6 | 9.7 | 0.00 | 0.00 | 0.00 | 86 | 1011.8 |
| 20260506062503 | 8 | 322 | 3.2 | 8.0 | 0.00 | 0.00 | 0.00 | 85 | 1011.6 |
| 20260506062005 | 8 | 276 | 3.2 | 11.3 | 0.00 | 0.00 | 0.00 | 85 | 1011.6 |
| 20260506061510 | 8 | 5 | 3.2 | 12.9 | 0.00 | 0.00 | 0.00 | 85 | 1011.5 |
| 20260506061008 | 8 | 337 | 3.2 | 12.9 | 0.00 | 0.00 | 0.00 | 86 | 1011.5 |
| 20260506060507 | 8 | 308 | 4.8 | 8.0 | 0.00 | 0.00 | 0.00 | 87 | 1011.5 |
| 20260506051004 | 8 | 274 | 1.6 | 6.4 | 0.00 | 0.00 | 0.00 | 86 | 1011.4 |
| 20260506050506 | 8 | 312 | 1.6 | 8.0 | 0.00 | 0.00 | 0.00 | 86 | 1011.4 |
| 20260506045006 | 8 | 304 | 1.6 | 8.0 | 0.00 | 0.00 | 0.00 | 86 | 1011.4 |
| 20260506044524 | 8 | 337 | 3.2 | 8.0 | 0.00 | 0.00 | 0.00 | 86 | 1011.4 |
| 20260506044013 | 8 | 335 | 3.2 | 6.4 | 0.00 | 0.00 | 0.00 | 86 | 1011.5 |
| 20260506043510 | 8 | 309 | 1.6 | 9.7 | 0.00 | 0.00 | 0.00 | 86 | 1011.4 |
| 20260506043020 | 8 | 297 | 3.2 | 8.0 | 0.00 | 0.00 | 0.00 | 85 | 1011.4 |
| 20260506042508 | 8 | 311 | 1.6 | 8.0 | 0.00 | 0.00 | 0.00 | 85 | 1011.4 |
| 20260506042019 | 8 | 341 | 1.6 | 3.2 | 0.00 | 0.00 | 0.00 | 85 | 1011.4 |
| 20260506041524 | 8 | 321 | 1.6 | 8.0 | 0.00 | 0.00 | 0.00 | 85 | 1011.4 |
| 20260506041007 | 8 | 338 | 1.6 | 8.0 | 0.00 | 0.00 | 0.00 | 85 | 1011.4 |
| 20260506040515 | 8 | 337 | 1.6 | 6.4 | 0.00 | 0.00 | 0.00 | 85 | 1011.4 |
| 20260506040030 | 8 | 329 | 3.2 | 6.4 | 0.00 | 0.00 | 0.00 | 85 | 1011.5 |
| 20260506035503 | 8 | 322 | 1.6 | 4.8 | 0.00 | 0.00 | 0.00 | 85 | 1011.5 |
| 20260506035006 | 8 | 343 | 1.6 | 6.4 | 0.00 | 0.00 | 0.00 | 85 | 1011.5 |
| 20260506034518 | 8 | 348 | 3.2 | 12.9 | 0.00 | 0.00 | 0.00 | 85 | 1011.6 |
| 20260506034008 | 8 | 326 | 3.2 | 12.9 | 0.00 | 0.00 | 0.00 | 85 | 1011.6 |
| 20260506033507 | 8 | 325 | 3.2 | 12.9 | 0.00 | 0.00 | 0.00 | 85 | 1011.6 |
| 20260506033029 | 8 | 306 | 4.8 | 8.0 | 0.00 | 0.00 | 0.00 | 85 | 1011.7 |
| 20260506032508 | 8 | 30 | 1.6 | 8.0 | 0.00 | 0.00 | 0.00 | 85 | 1011.7 |
| 20260506032007 | 8 | 40 | 3.2 | 14.5 | 0.00 | 0.00 | 0.00 | 85 | 1011.8 |
| 20260506031526 | 8 | 351 | 4.8 | 14.5 | 0.00 | 0.00 | 0.00 | 84 | 1011.9 |
| 20260506031009 | 8 | 298 | 3.2 | 6.4 | 0.00 | 0.00 | 0.00 | 84 | 1011.9 |
| 20260506030513 | 8 | 340 | 4.8 | 6.4 | 0.00 | 0.00 | 0.00 | 84 | 1012.0 |
| 20260506030026 | 8 | 317 | 3.2 | 8.0 | 0.00 | 0.00 | 0.00 | 84 | 1012.0 |
| 20260506025508 | 8 | 319 | 3.2 | 9.7 | 0.00 | 0.00 | 0.00 | 84 | 1011.9 |
| 20260506025010 | 8 | 310 | 3.2 | 9.7 | 0.00 | 0.00 | 0.00 | 84 | 1012.1 |
| 20260506024520 | 8 | 314 | 1.6 | 6.4 | 0.00 | 0.00 | 0.00 | 84 | 1012.1 |
| 20260506024004 | 8 | 304 | 1.6 | 6.4 | 0.00 | 0.00 | 0.00 | 85 | 1012.1 |
| 20260506023505 | 8 | 291 | 3.2 | 9.7 | 0.00 | 0.00 | 0.00 | 85 | 1012.1 |
| 20260506023021 | 8 | 308 | 1.6 | 9.7 | 0.00 | 0.00 | 0.00 | 85 | 1012.1 |
| 20260506022508 | 8 | 295 | 3.2 | 6.4 | 0.00 | 0.00 | 0.00 | 85 | 1012.1 |
| 20260506022009 | 8 | 311 | 1.6 | 12.9 | 0.00 | 0.00 | 0.00 | 85 | 1012.0 |
| 20260506021526 | 8 | 295 | 1.6 | 12.9 | 0.00 | 0.00 | 0.00 | 85 | 1012.0 |
| 20260506021008 | 8 | 300 | 4.8 | 11.3 | 0.00 | 0.00 | 0.00 | 85 | 1012.0 |
| 20260506020505 | 9 | 360 | 3.2 | 11.3 | 0.00 | 0.00 | 0.00 | 85 | 1012.0 |
| 20260506020013 | 9 | 315 | 3.2 | 9.7 | 0.00 | 0.00 | 0.00 | 85 | 1012.0 |
| 20260506015504 | 9 | 327 | 3.2 | 11.3 | 0.00 | 0.00 | 0.00 | 85 | 1012.0 |
| 20260506015005 | 9 | 360 | 3.2 | 11.3 | 0.00 | 0.00 | 0.00 | 85 | 1012.1 |
| 20260506014516 | 9 | 292 | 3.2 | 11.3 | 0.00 | 0.00 | 0.00 | 85 | 1012.1 |
| 20260506014003 | 9 | 321 | 3.2 | 8.0 | 0.00 | 0.00 | 0.00 | 85 | 1012.1 |
| 20260506013503 | 9 | 314 | 3.2 | 8.0 | 0.00 | 0.00 | 0.00 | 85 | 1012.2 |
| 20260506013026 | 9 | 342 | 1.6 | 6.4 | 0.00 | 0.00 | 0.00 | 85 | 1012.3 |
| 20260506012506 | 9 | 316 | 3.2 | 8.0 | 0.00 | 0.00 | 0.00 | 85 | 1012.3 |
| 20260506012008 | 9 | 5 | 3.2 | 8.0 | 0.00 | 0.00 | 0.00 | 85 | 1012.3 |
| 20260506011523 | 9 | 30 | 3.2 | 8.0 | 0.00 | 0.00 | 0.00 | 85 | 1012.4 |
| 20260506011004 | 9 | 317 | 3.2 | 8.0 | 0.00 | 0.00 | 0.00 | 85 | 1012.3 |
| 20260506010502 | 9 | 346 | 3.2 | 6.4 | 0.00 | 0.00 | 0.00 | 85 | 1012.3 |
| 20260506010007 | 9 | 303 | 1.6 | 6.4 | 0.00 | 0.00 | 0.00 | 85 | 1012.3 |
| 20260506005502 | 9 | 312 | 3.2 | 9.7 | 0.00 | 0.00 | 0.00 | 85 | 1012.4 |
| 20260506005005 | 9 | 360 | 3.2 | 9.7 | 0.00 | 0.00 | 0.00 | 85 | 1012.4 |
| 20260506004518 | 9 | 26 | 3.2 | 8.0 | 0.00 | 0.00 | 0.00 | 85 | 1012.4 |
| 20260506004003 | 9 | 302 | 3.2 | 9.7 | 0.00 | 0.00 | 0.00 | 85 | 1012.5 |
| 20260506003504 | 9 | 302 | 4.8 | 9.7 | 0.00 | 0.00 | 0.00 | 86 | 1012.5 |
| 20260506003013 | 9 | 306 | 3.2 | 8.0 | 0.00 | 0.00 | 0.00 | 86 | 1012.6 |
| 20260506002506 | 9 | 320 | 1.6 | 8.0 | 0.00 | 0.00 | 0.00 | 86 | 1012.5 |
| 20260506002009 | 9 | 331 | 3.2 | 8.0 | 0.00 | 0.00 | 0.00 | 86 | 1012.5 |
| 20260506001512 | 9 | 350 | 1.6 | 6.4 | 0.00 | 0.00 | 0.00 | 86 | 1012.6 |
| 20260506001004 | 9 | 311 | 1.6 | 8.0 | 0.00 | 0.00 | 0.00 | 86 | 1012.7 |
| 20260506000507 | 9 | 327 | 1.6 | 8.0 | 0.00 | 0.00 | 0.00 | 86 | 1012.7 |
| 20260506000014 | 9 | 301 | 1.6 | 6.4 | 0.00 | 0.00 | 0.00 | 86 | 1012.7 |
| 20260505235506 | 9 | 319 | 3.2 | 6.4 | 0.00 | 0.00 | 0.00 | 86 | 1012.8 |
| 20260505235004 | 9 | 311 | 1.6 | 6.4 | 0.00 | 0.00 | 0.00 | 86 | 1012.8 |
| 20260505234516 | 9 | 304 | 1.6 | 6.4 | 0.00 | 0.00 | 0.00 | 86 | 1012.9 |
| 20260505234002 | 9 | 312 | 3.2 | 6.4 | 0.00 | 0.00 | 0.00 | 85 | 1012.8 |
| 20260505233506 | 9 | 311 | 1.6 | 4.8 | 0.00 | 0.00 | 0.00 | 85 | 1012.9 |
| 20260505233015 | 9 | 327 | 1.6 | 6.4 | 0.00 | 0.00 | 0.00 | 85 | 1013.0 |
| 20260505232503 | 9 | 343 | 1.6 | 6.4 | 0.00 | 0.00 | 0.00 | 85 | 1013.0 |
| 20260505232003 | 9 | 335 | 1.6 | 4.8 | 0.00 | 0.00 | 0.00 | 85 | 1013.0 |
| 20260505231520 | 9 | 338 | 1.6 | 8.0 | 0.00 | 0.00 | 0.00 | 85 | 1013.1 |
| 20260505231007 | 9 | 360 | 3.2 | 8.0 | 0.00 | 0.00 | 0.00 | 85 | 1013.1 |
| 20260505230502 | 9 | 352 | 1.6 | 4.8 | 0.00 | 0.00 | 0.00 | 85 | 1013.2 |
| 20260505230016 | 9 | 324 | 1.6 | 6.4 | 0.00 | 0.00 | 0.00 | 84 | 1013.2 |
| 20260505225507 | 9 | 320 | 1.6 | 6.4 | 0.00 | 0.00 | 0.00 | 84 | 1013.2 |
| 20260505225010 | 9 | 312 | 1.6 | 8.0 | 0.00 | 0.00 | 0.00 | 84 | 1013.2 |
| 20260505224512 | 9 | 352 | 1.6 | 8.0 | 0.00 | 0.00 | 0.00 | 84 | 1013.3 |
| 20260505224007 | 9 | 279 | 1.6 | 6.4 | 0.00 | 0.00 | 0.00 | 84 | 1013.3 |
| 20260505223505 | 9 | 325 | 0.0 | 4.8 | 0.00 | 0.00 | 0.00 | 84 | 1013.3 |
| 20260505223010 | 9 | 346 | 1.6 | 6.4 | 0.00 | 0.00 | 0.00 | 83 | 1013.3 |
| 20260505222502 | 9 | 312 | 1.6 | 6.4 | 0.00 | 0.00 | 0.00 | 83 | 1013.2 |
| 20260505222006 | 10 | 303 | 1.6 | 6.4 | 0.00 | 0.00 | 0.00 | 83 | 1013.2 |
| 20260505221518 | 10 | 11 | 1.6 | 6.4 | 0.00 | 0.00 | 0.00 | 82 | 1013.3 |
| 20260505221002 | 10 | 329 | 1.6 | 6.4 | 0.00 | 0.00 | 0.00 | 82 | 1013.2 |
| 20260505220505 | 10 | 316 | 3.2 | 8.0 | 0.00 | 0.00 | 0.00 | 82 | 1013.2 |
| 20260505220035 | 10 | 336 | 3.2 | 8.0 | 0.00 | 0.00 | 0.00 | 81 | 1013.2 |
| 20260505215505 | 10 | 5 | 1.6 | 8.0 | 0.00 | 0.00 | 0.00 | 80 | 1013.3 |
| 20260505215009 | 10 | 53 | 3.2 | 8.0 | 0.00 | 0.00 | 0.00 | 80 | 1013.3 |
| 20260505214536 | 10 | 337 | 1.6 | 6.4 | 0.00 | 0.00 | 0.00 | 80 | 1013.3 |
| 20260505214012 | 10 | 336 | 0.0 | 8.0 | 0.00 | 0.00 | 0.00 | 80 | 1013.3 |
| 20260505213504 | 10 | 18 | 1.6 | 8.0 | 0.00 | 0.00 | 0.00 | 80 | 1013.3 |
| 20260505213033 | 10 | 27 | 1.6 | 4.8 | 0.00 | 0.00 | 0.00 | 80 | 1013.3 |
| 20260505212504 | 10 | 311 | 1.6 | 8.0 | 0.00 | 0.00 | 0.00 | 80 | 1013.3 |
| 20260505212003 | 9 | 333 | 3.2 | 8.0 | 0.00 | 0.00 | 0.00 | 80 | 1013.3 |
| 20260505211516 | 9 | 344 | 3.2 | 6.4 | 0.00 | 0.00 | 0.00 | 80 | 1013.3 |
| 20260505211007 | 9 | 360 | 1.6 | 6.4 | 0.00 | 0.00 | 0.00 | 81 | 1013.3 |
| 20260505210503 | 9 | 327 | 1.6 | 6.4 | 0.00 | 0.00 | 0.00 | 81 | 1013.3 |
| 20260505210016 | 9 | 316 | 1.6 | 4.8 | 0.00 | 0.00 | 0.00 | 82 | 1013.3 |
| 20260505205515 | 9 | 308 | 1.6 | 6.4 | 0.00 | 0.00 | 0.00 | 82 | 1013.3 |
| 20260505205013 | 9 | 29 | 1.6 | 8.0 | 0.00 | 0.00 | 0.00 | 82 | 1013.4 |
| 20260505204531 | 10 | 327 | 3.2 | 8.0 | 0.00 | 0.00 | 0.00 | 82 | 1013.4 |
| 20260505204003 | 10 | 317 | 1.6 | 6.4 | 0.00 | 0.00 | 0.00 | 83 | 1013.4 |
| 20260505203507 | 10 | 338 | 1.6 | 8.0 | 0.00 | 0.00 | 0.00 | 83 | 1013.4 |
| 20260505203025 | 10 | 340 | 1.6 | 8.0 | 0.00 | 0.00 | 0.00 | 83 | 1013.4 |
| 20260505202503 | 10 | 334 | 1.6 | 9.7 | 0.00 | 0.00 | 0.00 | 83 | 1013.4 |
| 20260505202009 | 10 | 348 | 3.2 | 9.7 | 0.00 | 0.00 | 0.00 | 83 | 1013.3 |
| 20260505201541 | 10 | 360 | 1.6 | 6.4 | 0.00 | 0.00 | 0.00 | 82 | 1013.3 |
| 20260505201003 | 10 | 340 | 3.2 | 8.0 | 0.00 | 0.00 | 0.00 | 82 | 1013.4 |
| 20260505200506 | 10 | 337 | 3.2 | 8.0 | 0.00 | 0.00 | 0.00 | 82 | 1013.3 |
| 20260505200014 | 10 | 15 | 1.6 | 6.4 | 0.00 | 0.00 | 0.00 | 81 | 1013.3 |
| 20260505195503 | 10 | 338 | 3.2 | 8.0 | 0.00 | 0.00 | 0.00 | 82 | 1013.2 |
| 20260505195005 | 10 | 5 | 3.2 | 8.0 | 0.00 | 0.00 | 0.00 | 81 | 1013.2 |
| 20260505194520 | 10 | 332 | 3.2 | 8.0 | 0.00 | 0.00 | 0.00 | 81 | 1013.1 |
| 20260505194016 | 10 | 346 | 3.2 | 8.0 | 0.00 | 0.00 | 0.00 | 81 | 1013.1 |
| 20260505193507 | 10 | 352 | 3.2 | 9.7 | 0.00 | 0.00 | 0.00 | 80 | 1013.0 |
| 20260505193035 | 10 | 329 | 3.2 | 9.7 | 0.00 | 0.00 | 0.00 | 80 | 1013.0 |
| 20260505192507 | 10 | 335 | 4.8 | 9.7 | 0.00 | 0.00 | 0.00 | 81 | 1013.0 |
| 20260505192010 | 10 | 302 | 1.6 | 4.8 | 0.00 | 0.00 | 0.00 | 80 | 1012.9 |
| 20260505191526 | 10 | 84 | 1.6 | 8.0 | 0.00 | 0.00 | 0.00 | 80 | 1012.9 |
| 20260505191006 | 10 | 313 | 1.6 | 9.7 | 0.00 | 0.00 | 0.00 | 80 | 1012.9 |
| 20260505190510 | 10 | 21 | 3.2 | 12.9 | 0.00 | 0.00 | 0.00 | 80 | 1012.9 |
| 20260505190032 | 11 | 294 | 3.2 | 8.0 | 0.00 | 0.00 | 0.00 | 80 | 1012.9 |
| 20260505185506 | 11 | 352 | 0.0 | 12.9 | 0.00 | 0.00 | 0.00 | 79 | 1012.8 |
| 20260505185006 | 11 | 15 | 1.6 | 12.9 | 0.00 | 0.00 | 0.00 | 79 | 1012.9 |
| 20260505184524 | 11 | 360 | 3.2 | 8.0 | 0.00 | 0.00 | 0.00 | 78 | 1012.8 |
| 20260505184007 | 11 | 326 | 1.6 | 9.7 | 0.00 | 0.00 | 0.00 | 79 | 1012.8 |
| 20260505183507 | 11 | 68 | 1.6 | 9.7 | 0.00 | 0.00 | 0.00 | 79 | 1012.8 |
| 20260505183039 | 11 | 352 | 1.6 | 6.4 | 0.00 | 0.00 | 0.00 | 79 | 1012.8 |
| 20260505182505 | 11 | 332 | 0.0 | 6.4 | 0.00 | 0.00 | 0.00 | 78 | 1012.8 |
| 20260505182010 | 11 | 342 | 1.6 | 8.0 | 0.00 | 0.00 | 0.00 | 78 | 1012.7 |
| 20260505181522 | 11 | 352 | 3.2 | 12.9 | 0.00 | 0.00 | 0.00 | 78 | 1012.9 |
| 20260505181011 | 11 | 44 | 3.2 | 14.5 | 0.00 | 0.00 | 0.00 | 78 | 1012.9 |
| 20260505180511 | 11 | 330 | 3.2 | 14.5 | 0.00 | 0.00 | 0.00 | 78 | 1012.9 |
| 20260505180031 | 11 | 85 | 1.6 | 12.9 | 0.00 | 0.00 | 0.00 | 77 | 1012.9 |
| 20260505175507 | 11 | 140 | 1.6 | 12.9 | 0.00 | 0.00 | 0.00 | 77 | 1012.8 |
| 20260505175013 | 11 | 61 | 3.2 | 8.0 | 0.00 | 0.00 | 0.00 | 77 | 1012.8 |
| 20260505174536 | 11 | 61 | 1.6 | 9.7 | 0.00 | 0.00 | 0.00 | 77 | 1012.8 |
| 20260505174007 | 11 | 15 | 3.2 | 8.0 | 0.00 | 0.00 | 0.00 | 76 | 1012.9 |
| 20260505173503 | 11 | 299 | 3.2 | 6.4 | 0.00 | 0.00 | 0.00 | 76 | 1012.8 |
| 20260505173011 | 11 | 31 | 3.2 | 12.9 | 0.00 | 0.00 | 0.00 | 75 | 1012.9 |
| 20260505172503 | 11 | 55 | 3.2 | 12.9 | 0.00 | 0.00 | 0.00 | 75 | 1012.9 |
| 20260505172000 | 12 | 82 | 4.8 | 14.5 | 0.00 | 0.00 | 0.00 | 73 | 1012.9 |
| 20260505171506 | 12 | 63 | 3.2 | 14.5 | 0.00 | 0.00 | 0.00 | 72 | 1012.9 |
| 20260505171002 | 12 | 100 | 3.2 | 11.3 | 0.00 | 0.00 | 0.00 | 71 | 1013.0 |
| 20260505170501 | 12 | 36 | 3.2 | 11.3 | 0.00 | 0.00 | 0.00 | 71 | 1012.9 |
| 20260505170011 | 13 | 5 | 3.2 | 9.7 | 0.00 | 0.00 | 0.00 | 70 | 1012.9 |
| 20260505165502 | 13 | 128 | 3.2 | 12.9 | 0.00 | 0.00 | 0.00 | 70 | 1012.9 |
| 20260505165002 | 13 | 61 | 3.2 | 12.9 | 0.00 | 0.00 | 0.00 | 70 | 1012.9 |
| 20260505164502 | 13 | 80 | 1.6 | 9.7 | 0.00 | 0.00 | 0.00 | 69 | 1012.9 |
| 20260505164004 | 12 | 11 | 1.6 | 12.9 | 0.00 | 0.00 | 0.00 | 69 | 1012.9 |
| 20260505163507 | 12 | 104 | 3.2 | 12.9 | 0.00 | 0.00 | 0.00 | 67 | 1012.9 |
| 20260505163022 | 13 | 55 | 4.8 | 12.9 | 0.00 | 0.00 | 0.00 | 69 | 1012.9 |
| 20260505162503 | 13 | 33 | 1.6 | 12.9 | 0.00 | 0.00 | 0.00 | 69 | 1012.8 |
| 20260505162006 | 13 | 101 | 3.2 | 12.9 | 0.00 | 0.00 | 0.00 | 69 | 1012.8 |
| 20260505161516 | 13 | 42 | 4.8 | 11.3 | 0.00 | 0.00 | 0.00 | 68 | 1012.8 |
| 20260505161003 | 13 | 10 | 1.6 | 11.3 | 0.00 | 0.00 | 0.00 | 69 | 1012.8 |
| 20260505160504 | 13 | 32 | 4.8 | 8.0 | 0.00 | 0.00 | 0.00 | 70 | 1012.8 |
| 20260505153008 | 13 | 37 | 3.2 | 16.1 | 0.00 | 0.00 | 0.00 | 69 | 1012.9 |
| 20260505152505 | 13 | 126 | 3.2 | 14.5 | 0.00 | 0.00 | 0.00 | 68 | 1013.0 |
| 20260505152011 | 13 | 112 | 4.8 | 12.9 | 0.00 | 0.00 | 0.00 | 69 | 1013.0 |
| 20260505151504 | 13 | 53 | 3.2 | 12.9 | 0.00 | 0.00 | 0.00 | 69 | 1013.0 |
| 20260505151007 | 13 | 93 | 4.8 | 14.5 | 0.00 | 0.00 | 0.00 | 70 | 1013.0 |
| 20260505150504 | 12 | 132 | 3.2 | 16.1 | 0.00 | 0.00 | 0.00 | 73 | 1013.0 |
| 20260505140507 | 13 | 119 | 4.8 | 12.9 | 0.00 | 0.00 | 0.00 | 68 | 1013.2 |